Time,TemperatureF,DewpointF,PressureIn,WindDirection,WindDirectionDegrees,WindSpeedMPH,WindSpeedGustMPH,Humidity,HourlyPrecipIn,Conditions,Clouds,dailyrainin,SoftwareType,DateUTC
2013-07-23 00:03:00,82.8,75.9,29.91,South,171,0.0,6.0,80,0.00,,,0.00,meteohub,2013-07-23 05:03:00,
2013-07-23 00:08:00,82.8,76.3,29.91,SSE,163,0.0,6.0,81,0.00,,,0.00,meteohub,2013-07-23 05:08:00,
2013-07-23 00:13:00,82.8,76.3,29.91,SE,144,4.0,6.0,81,0.00,,,0.00,meteohub,2013-07-23 05:13:00,
2013-07-23 00:18:00,82.6,76.1,29.91,South,171,0.0,7.0,81,0.00,,,0.00,meteohub,2013-07-23 05:18:00,
2013-07-23 00:23:00,82.6,76.1,29.91,SW,227,2.0,7.0,81,0.00,,,0.00,meteohub,2013-07-23 05:23:00,
2013-07-23 00:28:00,82.6,76.1,29.91,SSW,192,1.0,7.0,81,0.00,,,0.00,meteohub,2013-07-23 05:28:00,
2013-07-23 00:33:00,82.6,76.1,29.92,South,186,1.0,6.0,81,0.00,,,0.00,meteohub,2013-07-23 05:33:00,
2013-07-23 00:38:00,82.6,76.1,29.92,South,174,3.0,7.0,81,0.00,,,0.00,meteohub,2013-07-23 05:38:00,
2013-07-23 00:43:00,82.6,76.1,29.92,South,169,0.0,7.0,81,0.00,,,0.00,meteohub,2013-07-23 05:43:00,
2013-07-23 00:48:00,82.4,76.3,29.92,WSW,246,0.0,7.0,82,0.00,,,0.00,meteohub,2013-07-23 05:48:00,
2013-07-23 00:53:00,82.2,76.1,29.92,SSE,153,1.0,6.0,82,0.00,,,0.00,meteohub,2013-07-23 05:53:00,
2013-07-23 00:58:00,82.2,76.1,29.92,SW,225,1.0,5.0,82,0.00,,,0.00,meteohub,2013-07-23 05:58:00,
2013-07-23 01:03:00,82.0,75.9,29.91,SSE,154,1.0,8.0,82,0.00,,,0.00,meteohub,2013-07-23 06:03:00,
2013-07-23 01:08:00,82.0,75.9,29.91,SE,139,0.0,8.0,82,0.00,,,0.00,meteohub,2013-07-23 06:08:00,
2013-07-23 01:13:00,82.0,76.3,29.91,SE,132,3.0,8.0,83,0.00,,,0.00,meteohub,2013-07-23 06:13:00,
2013-07-23 01:18:00,81.9,75.7,29.91,SSE,168,2.0,4.0,82,0.00,,,0.00,meteohub,2013-07-23 06:18:00,
2013-07-23 01:23:00,81.9,75.7,29.91,South,186,0.0,5.0,82,0.00,,,0.00,meteohub,2013-07-23 06:23:00,
2013-07-23 01:28:00,81.7,75.9,29.91,SSW,200,1.0,5.0,83,0.00,,,0.00,meteohub,2013-07-23 06:28:00,
2013-07-23 01:33:00,81.7,75.9,29.91,SSE,159,1.0,6.0,83,0.00,,,0.00,meteohub,2013-07-23 06:33:00,
2013-07-23 01:38:00,81.5,75.4,29.91,SW,233,1.0,6.0,82,0.00,,,0.00,meteohub,2013-07-23 06:38:00,
2013-07-23 01:43:00,81.3,75.4,29.91,SSE,163,3.0,6.0,82,0.00,,,0.00,meteohub,2013-07-23 06:43:00,
2013-07-23 01:48:00,81.3,75.4,29.91,South,170,1.0,5.0,82,0.00,,,0.00,meteohub,2013-07-23 06:48:00,
2013-07-23 01:53:00,81.1,75.6,29.91,SSW,207,2.0,7.0,83,0.00,,,0.00,meteohub,2013-07-23 06:53:00,
2013-07-23 01:58:00,81.1,75.2,29.91,SW,216,1.0,7.0,82,0.00,,,0.00,meteohub,2013-07-23 06:58:00,
2013-07-23 02:03:00,81.0,75.0,29.91,WSW,241,1.0,7.0,82,0.00,,,0.00,meteohub,2013-07-23 07:03:00,
2013-07-23 02:08:00,81.0,75.0,29.91,WSW,245,5.0,5.0,82,0.00,,,0.00,meteohub,2013-07-23 07:08:00,
2013-07-23 02:13:00,80.8,74.8,29.91,WSW,246,2.0,6.0,82,0.00,,,0.00,meteohub,2013-07-23 07:13:00,
2013-07-23 02:18:00,80.8,74.5,29.91,South,181,1.0,7.0,81,0.00,,,0.00,meteohub,2013-07-23 07:18:00,
2013-07-23 02:23:00,80.8,74.5,29.91,South,175,1.0,7.0,81,0.00,,,0.00,meteohub,2013-07-23 07:23:00,
2013-07-23 02:28:00,80.4,74.1,29.91,SSW,202,3.0,7.0,81,0.00,,,0.00,meteohub,2013-07-23 07:28:00,
2013-07-23 02:33:00,80.4,74.1,29.91,SSW,196,0.0,7.0,81,0.00,,,0.00,meteohub,2013-07-23 07:33:00,
2013-07-23 02:38:00,80.4,74.1,29.91,SSE,155,2.0,5.0,81,0.00,,,0.00,meteohub,2013-07-23 07:38:00,
2013-07-23 02:43:00,80.2,73.9,29.91,WNW,288,1.0,6.0,81,0.00,,,0.00,meteohub,2013-07-23 07:43:00,
2013-07-23 02:48:00,80.2,73.9,29.91,SSE,167,2.0,6.0,81,0.00,,,0.00,meteohub,2013-07-23 07:48:00,
2013-07-23 02:53:00,80.1,73.8,29.91,South,180,0.0,6.0,81,0.00,,,0.00,meteohub,2013-07-23 07:53:00,
2013-07-23 02:59:00,80.1,73.8,29.91,SSW,198,2.0,6.0,81,0.00,,,0.00,meteohub,2013-07-23 07:59:00,
2013-07-23 03:04:00,79.9,73.6,29.91,ESE,105,4.0,5.0,81,0.00,,,0.00,meteohub,2013-07-23 08:04:00,
2013-07-23 03:09:00,79.7,73.4,29.91,South,172,0.0,5.0,81,0.00,,,0.00,meteohub,2013-07-23 08:09:00,
2013-07-23 03:14:00,79.7,73.4,29.91,WNW,294,0.0,5.0,81,0.00,,,0.00,meteohub,2013-07-23 08:14:00,
2013-07-23 03:19:00,79.5,73.2,29.91,South,180,1.0,5.0,81,0.00,,,0.00,meteohub,2013-07-23 08:19:00,
2013-07-23 03:24:00,79.3,73.0,29.91,ESE,121,2.0,4.0,81,0.00,,,0.00,meteohub,2013-07-23 08:24:00,
2013-07-23 03:29:00,79.3,73.0,29.91,West,281,1.0,6.0,81,0.00,,,0.00,meteohub,2013-07-23 08:29:00,
2013-07-23 03:34:00,79.2,73.2,29.91,SSE,159,2.0,6.0,82,0.00,,,0.00,meteohub,2013-07-23 08:34:00,
2013-07-23 03:39:00,79.2,73.2,29.91,South,184,0.0,5.0,82,0.00,,,0.00,meteohub,2013-07-23 08:39:00,
2013-07-23 03:44:00,79.0,73.0,29.91,SE,127,2.0,5.0,82,0.00,,,0.00,meteohub,2013-07-23 08:44:00,
2013-07-23 03:49:00,79.0,73.0,29.91,SSE,164,0.0,4.0,82,0.00,,,0.00,meteohub,2013-07-23 08:49:00,
2013-07-23 03:54:00,78.6,72.7,29.91,SSW,195,2.0,4.0,82,0.00,,,0.00,meteohub,2013-07-23 08:54:00,
2013-07-23 03:59:00,78.6,73.0,29.91,WSW,238,0.0,4.0,83,0.00,,,0.00,meteohub,2013-07-23 08:59:00,
2013-07-23 04:04:00,78.6,73.0,29.91,South,189,1.0,5.0,83,0.00,,,0.00,meteohub,2013-07-23 09:04:00,
2013-07-23 04:09:00,78.4,72.9,29.91,SSW,211,2.0,6.0,83,0.00,,,0.00,meteohub,2013-07-23 09:09:00,
2013-07-23 04:14:00,78.4,73.2,29.91,SSE,148,1.0,7.0,84,0.00,,,0.00,meteohub,2013-07-23 09:14:00,
2013-07-23 04:19:00,78.3,73.0,29.90,South,184,1.0,7.0,84,0.00,,,0.00,meteohub,2013-07-23 09:19:00,
2013-07-23 04:24:00,78.3,73.0,29.90,South,189,3.0,7.0,84,0.00,,,0.00,meteohub,2013-07-23 09:24:00,
2013-07-23 04:29:00,78.3,73.0,29.91,SW,227,2.0,6.0,84,0.00,,,0.00,meteohub,2013-07-23 09:29:00,
2013-07-23 04:34:00,78.3,73.4,29.91,WSW,247,3.0,7.0,85,0.00,,,0.00,meteohub,2013-07-23 09:34:00,
2013-07-23 04:39:00,78.3,73.4,29.91,SW,216,5.0,7.0,85,0.00,,,0.00,meteohub,2013-07-23 09:39:00,
2013-07-23 04:44:00,78.1,73.2,29.91,South,184,3.0,7.0,85,0.00,,,0.00,meteohub,2013-07-23 09:44:00,
2013-07-23 04:49:00,78.1,73.2,29.91,SW,218,0.0,8.0,85,0.00,,,0.00,meteohub,2013-07-23 09:49:00,
2013-07-23 04:54:00,77.9,73.0,29.91,SE,142,0.0,8.0,85,0.00,,,0.00,meteohub,2013-07-23 09:54:00,
2013-07-23 04:59:00,77.7,73.2,29.91,SW,215,1.0,7.0,86,0.00,,,0.00,meteohub,2013-07-23 09:59:00,
2013-07-23 05:04:00,77.7,73.2,29.91,South,172,6.0,7.0,86,0.00,,,0.00,meteohub,2013-07-23 10:04:00,
2013-07-23 05:09:00,77.5,73.0,29.91,South,180,1.0,7.0,86,0.00,,,0.00,meteohub,2013-07-23 10:09:00,
2013-07-23 05:14:00,77.5,73.4,29.91,SSW,197,1.0,7.0,87,0.00,,,0.00,meteohub,2013-07-23 10:14:00,
2013-07-23 05:19:00,77.5,73.4,29.91,SW,219,1.0,7.0,87,0.00,,,0.00,meteohub,2013-07-23 10:19:00,
2013-07-23 05:25:00,77.4,73.2,29.91,South,184,0.0,7.0,87,0.00,,,0.00,meteohub,2013-07-23 10:25:00,
2013-07-23 05:30:00,77.4,73.6,29.91,SE,144,4.0,7.0,88,0.00,,,0.00,meteohub,2013-07-23 10:30:00,
2013-07-23 05:35:00,77.2,73.4,29.91,SSW,203,1.0,7.0,88,0.00,,,0.00,meteohub,2013-07-23 10:35:00,
2013-07-23 05:40:00,77.0,73.2,29.91,SSW,211,4.0,7.0,88,0.00,,,0.00,meteohub,2013-07-23 10:40:00,
2013-07-23 05:45:00,76.8,73.4,29.91,ESE,110,0.0,7.0,89,0.00,,,0.00,meteohub,2013-07-23 10:45:00,
2013-07-23 05:50:00,76.8,73.4,29.91,SSW,196,0.0,7.0,89,0.00,,,0.00,meteohub,2013-07-23 10:50:00,
2013-07-23 05:55:00,76.8,73.4,29.91,SSW,197,1.0,7.0,89,0.00,,,0.00,meteohub,2013-07-23 10:55:00,
2013-07-23 06:00:00,76.6,73.4,29.91,SSE,150,1.0,6.0,90,0.00,,,0.00,meteohub,2013-07-23 11:00:00,
2013-07-23 06:05:00,76.6,73.4,29.92,SSE,167,0.0,6.0,90,0.00,,,0.00,meteohub,2013-07-23 11:05:00,
2013-07-23 06:10:00,76.6,73.4,29.92,SSW,196,1.0,6.0,90,0.00,,,0.00,meteohub,2013-07-23 11:10:00,
2013-07-23 06:15:00,76.5,73.6,29.92,SW,218,0.0,7.0,91,0.00,,,0.00,meteohub,2013-07-23 11:15:00,
2013-07-23 06:20:00,76.5,73.6,29.92,SSE,153,0.0,7.0,91,0.00,,,0.00,meteohub,2013-07-23 11:20:00,
2013-07-23 06:25:00,76.5,73.6,29.92,WSW,244,3.0,7.0,91,0.00,,,0.00,meteohub,2013-07-23 11:25:00,
2013-07-23 06:30:00,76.5,73.6,29.92,South,189,0.0,5.0,91,0.00,,,0.00,meteohub,2013-07-23 11:30:00,
2013-07-23 06:35:00,76.5,73.9,29.92,SSW,194,0.0,4.0,92,0.00,,,0.00,meteohub,2013-07-23 11:35:00,
2013-07-23 06:40:00,76.5,73.9,29.92,SSW,204,3.0,4.0,92,0.00,,,0.00,meteohub,2013-07-23 11:40:00,
2013-07-23 06:45:00,76.5,73.9,29.92,SW,223,1.0,5.0,92,0.00,,,0.00,meteohub,2013-07-23 11:45:00,
2013-07-23 06:50:00,76.5,73.9,29.92,SSW,192,1.0,5.0,92,0.00,,,0.00,meteohub,2013-07-23 11:50:00,
2013-07-23 06:55:00,76.5,73.9,29.93,South,190,3.0,7.0,92,0.00,,,0.00,meteohub,2013-07-23 11:55:00,
2013-07-23 07:00:00,76.5,73.9,29.92,SSW,202,0.0,7.0,92,0.00,,,0.00,meteohub,2013-07-23 12:00:00,
2013-07-23 07:05:00,76.5,73.9,29.93,SE,128,0.0,5.0,92,0.00,,,0.00,meteohub,2013-07-23 12:05:00,
2013-07-23 07:10:00,76.6,74.1,29.93,SSE,153,0.0,5.0,92,0.00,,,0.00,meteohub,2013-07-23 12:10:00,
2013-07-23 07:15:00,76.6,74.1,29.93,SSE,155,0.0,5.0,92,0.00,,,0.00,meteohub,2013-07-23 12:15:00,
2013-07-23 07:20:00,76.8,74.3,29.93,SSW,212,2.0,7.0,92,0.00,,,0.00,meteohub,2013-07-23 12:20:00,
2013-07-23 07:25:00,77.0,74.5,29.93,SW,233,1.0,7.0,92,0.00,,,0.00,meteohub,2013-07-23 12:25:00,
2013-07-23 07:30:00,77.2,74.3,29.93,South,179,1.0,7.0,91,0.00,,,0.00,meteohub,2013-07-23 12:30:00,
2013-07-23 07:35:00,77.4,74.5,29.93,SSE,162,0.0,6.0,91,0.00,,,0.00,meteohub,2013-07-23 12:35:00,
2013-07-23 07:40:00,77.4,74.5,29.93,SSW,199,3.0,7.0,91,0.00,,,0.00,meteohub,2013-07-23 12:40:00,
2013-07-23 07:45:00,77.5,74.7,29.93,SW,216,3.0,7.0,91,0.00,,,0.00,meteohub,2013-07-23 12:45:00,
2013-07-23 07:50:00,77.7,74.8,29.94,SSW,205,0.0,7.0,91,0.00,,,0.00,meteohub,2013-07-23 12:50:00,
2013-07-23 07:55:00,78.1,75.2,29.94,SE,142,2.0,7.0,91,0.00,,,0.00,meteohub,2013-07-23 12:55:00,
2013-07-23 08:00:00,78.3,75.0,29.94,West,279,1.0,7.0,90,0.00,,,0.00,meteohub,2013-07-23 13:00:00,
2013-07-23 08:05:00,78.4,75.2,29.94,SE,146,1.0,7.0,90,0.00,,,0.00,meteohub,2013-07-23 13:05:00,
2013-07-23 08:10:00,79.0,75.7,29.94,ESE,114,1.0,6.0,90,0.00,,,0.00,meteohub,2013-07-23 13:10:00,
2013-07-23 08:15:00,79.3,75.7,29.94,WNW,298,1.0,6.0,89,0.00,,,0.00,meteohub,2013-07-23 13:15:00,
2013-07-23 08:21:00,79.5,75.6,29.95,SSW,194,5.0,6.0,88,0.00,,,0.00,meteohub,2013-07-23 13:21:00,
2013-07-23 08:26:00,79.9,75.7,29.95,West,278,2.0,6.0,87,0.00,,,0.00,meteohub,2013-07-23 13:26:00,
2013-07-23 08:31:00,80.2,76.1,29.95,WSW,258,1.0,7.0,87,0.00,,,0.00,meteohub,2013-07-23 13:31:00,
2013-07-23 08:36:00,80.4,76.1,29.95,SW,235,0.0,7.0,87,0.00,,,0.00,meteohub,2013-07-23 13:36:00,
2013-07-23 08:41:00,80.6,76.1,29.95,South,186,1.0,7.0,86,0.00,,,0.00,meteohub,2013-07-23 13:41:00,
2013-07-23 08:46:00,80.8,75.9,29.95,South,180,4.0,7.0,85,0.00,,,0.00,meteohub,2013-07-23 13:46:00,
2013-07-23 08:51:00,81.1,76.3,29.95,SSE,149,1.0,7.0,85,0.00,,,0.00,meteohub,2013-07-23 13:51:00,
2013-07-23 08:56:00,81.3,76.5,29.96,South,173,2.0,7.0,85,0.00,,,0.00,meteohub,2013-07-23 13:56:00,
2013-07-23 09:01:00,81.7,76.3,29.96,South,190,3.0,7.0,84,0.00,,,0.00,meteohub,2013-07-23 14:01:00,
2013-07-23 09:06:00,82.0,76.3,29.96,WSW,237,2.0,6.0,83,0.00,,,0.00,meteohub,2013-07-23 14:06:00,
2013-07-23 09:11:00,82.4,76.6,29.96,SSW,201,2.0,14.0,83,0.00,,,0.00,meteohub,2013-07-23 14:11:00,
2013-07-23 09:16:00,82.8,76.6,29.96,SW,226,1.0,14.0,82,0.00,,,0.00,meteohub,2013-07-23 14:16:00,
2013-07-23 09:21:00,83.1,76.6,29.96,SSE,165,0.0,14.0,81,0.00,,,0.00,meteohub,2013-07-23 14:21:00,
2013-07-23 09:26:00,83.7,77.2,29.96,SW,227,7.0,9.0,81,0.00,,,0.00,meteohub,2013-07-23 14:26:00,
2013-07-23 09:31:00,84.4,77.2,29.96,SSW,202,4.0,7.0,79,0.00,,,0.00,meteohub,2013-07-23 14:31:00,
2013-07-23 09:36:00,84.9,76.8,29.96,West,271,1.0,10.0,77,0.00,,,0.00,meteohub,2013-07-23 14:36:00,
2013-07-23 09:41:00,85.5,77.0,29.96,WSW,243,4.0,10.0,76,0.00,,,0.00,meteohub,2013-07-23 14:41:00,
2013-07-23 09:46:00,85.8,77.0,29.96,SW,236,1.0,10.0,75,0.00,,,0.00,meteohub,2013-07-23 14:46:00,
2013-07-23 09:51:00,86.4,76.6,29.95,West,259,1.0,9.0,73,0.00,,,0.00,meteohub,2013-07-23 14:51:00,
2013-07-23 09:56:00,86.7,77.0,29.95,West,281,1.0,7.0,73,0.00,,,0.00,meteohub,2013-07-23 14:56:00,
2013-07-23 10:01:00,87.1,78.3,29.95,SSE,163,3.0,8.0,75,0.00,,,0.00,meteohub,2013-07-23 15:01:00,
2013-07-23 10:06:00,87.6,78.3,29.95,SW,234,1.0,8.0,74,0.00,,,0.00,meteohub,2013-07-23 15:06:00,
2013-07-23 10:12:00,88.0,77.9,29.95,SSW,209,4.0,8.0,72,0.00,,,0.00,meteohub,2013-07-23 15:12:00,
2013-07-23 10:17:00,88.0,77.0,29.95,SSE,163,2.0,7.0,70,0.00,,,0.00,meteohub,2013-07-23 15:17:00,
2013-07-23 10:22:00,88.3,78.1,29.95,South,190,5.0,7.0,72,0.00,,,0.00,meteohub,2013-07-23 15:22:00,
2013-07-23 10:27:00,88.5,77.0,29.95,WSW,254,1.0,8.0,69,0.00,,,0.00,meteohub,2013-07-23 15:27:00,
2013-07-23 10:32:00,88.9,77.4,29.95,WSW,252,2.0,12.0,69,0.00,,,0.00,meteohub,2013-07-23 15:32:00,
2013-07-23 10:37:00,89.1,77.2,29.95,West,265,2.0,12.0,68,0.00,,,0.00,meteohub,2013-07-23 15:37:00,
2013-07-23 10:42:00,89.4,77.0,29.95,SW,221,2.0,12.0,67,0.00,,,0.00,meteohub,2013-07-23 15:42:00,
2013-07-23 10:47:00,90.1,78.1,29.96,WSW,242,4.0,9.0,68,0.00,,,0.00,meteohub,2013-07-23 15:47:00,
2013-07-23 10:52:00,90.3,77.4,29.95,SW,227,6.0,9.0,66,0.00,,,0.00,meteohub,2013-07-23 15:52:00,
2013-07-23 10:57:00,90.3,77.9,29.96,WSW,246,2.0,8.0,67,0.00,,,0.00,meteohub,2013-07-23 15:57:00,
2013-07-23 11:02:00,90.7,77.4,29.95,WNW,289,2.0,8.0,65,0.00,,,0.00,meteohub,2013-07-23 16:02:00,
2013-07-23 11:07:00,91.2,77.4,29.95,SW,218,2.0,8.0,64,0.00,,,0.00,meteohub,2013-07-23 16:07:00,
2013-07-23 11:12:00,91.8,78.3,29.95,West,263,5.0,8.0,65,0.00,,,0.00,meteohub,2013-07-23 16:12:00,
2013-07-23 11:17:00,92.1,78.3,29.95,SE,136,0.0,8.0,64,0.00,,,0.00,meteohub,2013-07-23 16:17:00,
2013-07-23 11:22:00,92.7,78.6,29.95,WSW,250,3.0,8.0,64,0.00,,,0.00,meteohub,2013-07-23 16:22:00,
2013-07-23 11:27:00,93.2,78.3,29.95,WSW,248,2.0,7.0,62,0.00,,,0.00,meteohub,2013-07-23 16:27:00,
2013-07-23 11:32:00,93.0,77.5,29.95,SSE,162,2.0,8.0,61,0.00,,,0.00,meteohub,2013-07-23 16:32:00,
2013-07-23 11:37:00,93.0,78.1,29.95,SW,234,3.0,9.0,62,0.00,,,0.00,meteohub,2013-07-23 16:37:00,
2013-07-23 11:42:00,93.0,77.5,29.95,NW,311,2.0,9.0,61,0.00,,,0.00,meteohub,2013-07-23 16:42:00,
2013-07-23 11:47:00,93.2,77.7,29.95,South,185,3.0,8.0,61,0.00,,,0.00,meteohub,2013-07-23 16:47:00,
2013-07-23 11:52:00,93.2,77.7,29.95,SE,135,4.0,8.0,61,0.00,,,0.00,meteohub,2013-07-23 16:52:00,
2013-07-23 11:57:00,93.4,77.9,29.94,SSW,211,2.0,8.0,61,0.00,,,0.00,meteohub,2013-07-23 16:57:00,
2013-07-23 12:02:00,93.6,78.1,29.94,SSE,166,5.0,8.0,61,0.00,,,0.00,meteohub,2013-07-23 17:02:00,
2013-07-23 12:07:00,93.6,78.1,29.94,SSE,167,3.0,8.0,61,0.00,,,0.00,meteohub,2013-07-23 17:07:00,
2013-07-23 12:12:00,93.7,77.7,29.94,SSE,163,2.0,8.0,60,0.00,,,0.00,meteohub,2013-07-23 17:12:00,
2013-07-23 12:17:00,93.9,77.9,29.94,WSW,239,4.0,8.0,60,0.00,,,0.00,meteohub,2013-07-23 17:17:00,
2013-07-23 12:22:00,93.9,77.9,29.94,South,176,1.0,8.0,60,0.00,,,0.00,meteohub,2013-07-23 17:22:00,
2013-07-23 12:28:00,93.9,78.4,29.93,South,169,1.0,8.0,61,0.00,,,0.00,meteohub,2013-07-23 17:28:00,
2013-07-23 12:33:00,93.9,77.9,29.93,SSW,213,7.0,7.0,60,0.00,,,0.00,meteohub,2013-07-23 17:33:00,
2013-07-23 12:38:00,93.9,77.9,29.93,WNW,284,0.0,9.0,60,0.00,,,0.00,meteohub,2013-07-23 17:38:00,
2013-07-23 12:43:00,94.1,78.6,29.93,SW,232,4.0,9.0,61,0.00,,,0.00,meteohub,2013-07-23 17:43:00,
2013-07-23 12:48:00,94.5,77.9,29.93,SW,229,1.0,9.0,59,0.00,,,0.00,meteohub,2013-07-23 17:48:00,
2013-07-23 12:53:00,94.6,77.5,29.93,SE,144,3.0,8.0,58,0.00,,,0.00,meteohub,2013-07-23 17:53:00,
2013-07-23 12:58:00,94.8,78.8,29.92,ESE,121,1.0,8.0,60,0.00,,,0.00,meteohub,2013-07-23 17:58:00,
2013-07-23 13:03:00,95.0,79.3,29.92,WSW,246,2.0,8.0,61,0.00,,,0.00,meteohub,2013-07-23 18:03:00,
2013-07-23 13:08:00,95.4,79.7,29.92,West,269,1.0,7.0,61,0.00,,,0.00,meteohub,2013-07-23 18:08:00,
2013-07-23 13:14:00,95.4,79.7,29.92,SSW,211,5.0,7.0,61,0.00,,,0.00,meteohub,2013-07-23 18:14:00,
2013-07-23 13:22:00,95.0,77.9,29.92,NNW,333,3.0,7.0,58,0.00,,,0.00,meteohub,2013-07-23 18:22:00,
2013-07-23 13:30:00,95.2,80.1,29.92,SW,220,2.0,9.0,62,0.00,,,0.00,meteohub,2013-07-23 18:30:00,
2013-07-23 13:37:00,95.0,79.3,29.92,SSE,168,0.0,9.0,61,0.00,,,0.00,meteohub,2013-07-23 18:37:00,
2013-07-23 13:42:00,95.2,78.6,29.91,South,172,1.0,7.0,59,0.00,,,0.00,meteohub,2013-07-23 18:42:00,
2013-07-23 13:47:00,95.0,78.4,29.91,East,100,2.0,7.0,59,0.00,,,0.00,meteohub,2013-07-23 18:47:00,
2013-07-23 13:52:00,95.2,79.2,29.91,ESE,114,2.0,7.0,60,0.00,,,0.00,meteohub,2013-07-23 18:52:00,
2013-07-23 13:57:00,95.2,79.2,29.91,SSE,155,5.0,6.0,60,0.00,,,0.00,meteohub,2013-07-23 18:57:00,
2013-07-23 14:02:00,94.8,77.7,29.91,SW,230,2.0,7.0,58,0.00,,,0.00,meteohub,2013-07-23 19:02:00,
2013-07-23 14:07:00,95.2,78.6,29.91,SW,227,4.0,7.0,59,0.00,,,0.00,meteohub,2013-07-23 19:07:00,
2013-07-23 14:12:00,95.2,79.5,29.91,East,97,7.0,7.0,61,0.00,,,0.00,meteohub,2013-07-23 19:12:00,
2013-07-23 14:18:00,95.4,78.8,29.90,South,185,3.0,8.0,59,0.00,,,0.00,meteohub,2013-07-23 19:18:00,
2013-07-23 14:25:00,95.5,79.9,29.90,SW,227,0.0,10.0,61,0.00,,,0.00,meteohub,2013-07-23 19:25:00,
2013-07-23 14:31:00,95.9,78.8,29.90,SSE,154,2.0,10.0,58,0.00,,,0.00,meteohub,2013-07-23 19:31:00,
2013-07-23 14:37:00,95.9,78.3,29.90,SW,225,1.0,8.0,57,0.00,,,0.00,meteohub,2013-07-23 19:37:00,
2013-07-23 14:42:00,95.7,77.5,29.89,South,188,3.0,8.0,56,0.00,,,0.00,meteohub,2013-07-23 19:42:00,
2013-07-23 14:47:00,95.7,79.2,29.89,SSW,213,1.0,8.0,59,0.00,,,0.00,meteohub,2013-07-23 19:47:00,
2013-07-23 14:53:00,95.7,79.5,29.89,SSW,200,1.0,8.0,60,0.00,,,0.00,meteohub,2013-07-23 19:53:00,
2013-07-23 15:00:00,95.9,79.3,29.89,SSE,159,1.0,8.0,59,0.00,,,0.00,meteohub,2013-07-23 20:00:00,
2013-07-23 15:07:00,96.4,79.7,29.88,East,94,1.0,9.0,59,0.00,,,0.00,meteohub,2013-07-23 20:07:00,
2013-07-23 15:12:00,96.6,78.8,29.88,South,190,2.0,9.0,57,0.00,,,0.00,meteohub,2013-07-23 20:12:00,
2013-07-23 15:17:00,96.6,79.3,29.88,SW,224,4.0,9.0,58,0.00,,,0.00,meteohub,2013-07-23 20:17:00,
2013-07-23 15:22:00,96.3,79.0,29.87,SE,142,2.0,10.0,58,0.00,,,0.00,meteohub,2013-07-23 20:22:00,
2013-07-23 15:31:00,96.3,78.6,29.87,South,171,3.0,10.0,57,0.00,,,0.00,meteohub,2013-07-23 20:31:00,
2013-07-23 15:37:00,96.3,79.5,29.86,South,178,1.0,11.0,59,0.00,,,0.00,meteohub,2013-07-23 20:37:00,
2013-07-23 15:42:00,96.3,78.1,29.86,SE,142,2.0,10.0,56,0.00,,,0.00,meteohub,2013-07-23 20:42:00,
2013-07-23 15:48:00,96.3,78.6,29.86,SW,223,2.0,10.0,57,0.00,,,0.00,meteohub,2013-07-23 20:48:00,
2013-07-23 15:55:00,96.3,78.1,29.86,SSE,157,1.0,9.0,56,0.00,,,0.00,meteohub,2013-07-23 20:55:00,
2013-07-23 16:00:00,96.4,77.5,29.86,SSW,192,2.0,10.0,55,0.00,,,0.00,meteohub,2013-07-23 21:00:00,
2013-07-23 16:06:00,96.4,78.1,29.86,SSW,205,5.0,10.0,56,0.00,,,0.00,meteohub,2013-07-23 21:06:00,
2013-07-23 16:12:00,96.6,79.9,29.85,WSW,252,1.0,10.0,59,0.00,,,0.00,meteohub,2013-07-23 21:12:00,
2013-07-23 16:17:00,97.0,78.6,29.85,SSE,165,2.0,7.0,56,0.00,,,0.00,meteohub,2013-07-23 21:17:00,
2013-07-23 16:22:00,97.2,78.3,29.85,SE,138,4.0,7.0,55,0.00,,,0.00,meteohub,2013-07-23 21:22:00,
2013-07-23 16:27:00,97.2,78.8,29.85,SSE,161,1.0,9.0,56,0.00,,,0.00,meteohub,2013-07-23 21:27:00,
2013-07-23 16:33:00,97.2,78.8,29.85,SSE,159,2.0,9.0,56,0.00,,,0.00,meteohub,2013-07-23 21:33:00,
2013-07-23 16:40:00,97.2,78.3,29.85,SW,218,1.0,10.0,55,0.00,,,0.00,meteohub,2013-07-23 21:40:00,
2013-07-23 16:48:00,97.3,78.4,29.85,South,182,2.0,10.0,55,0.00,,,0.00,meteohub,2013-07-23 21:48:00,
2013-07-23 16:56:00,97.0,77.5,29.85,SSW,209,3.0,9.0,54,0.00,,,0.00,meteohub,2013-07-23 21:56:00,
2013-07-23 17:01:00,97.0,78.1,29.85,SE,124,4.0,9.0,55,0.00,,,0.00,meteohub,2013-07-23 22:01:00,
2013-07-23 17:06:00,97.0,78.6,29.85,SW,226,3.0,9.0,56,0.00,,,0.00,meteohub,2013-07-23 22:06:00,
2013-07-23 17:11:00,96.4,78.6,29.85,WSW,238,3.0,7.0,57,0.00,,,0.00,meteohub,2013-07-23 22:11:00,
2013-07-23 17:17:00,95.5,78.4,29.84,SE,126,1.0,7.0,58,0.00,,,0.00,meteohub,2013-07-23 22:17:00,
2013-07-23 17:22:00,95.2,78.1,29.84,West,271,0.0,7.0,58,0.00,,,0.00,meteohub,2013-07-23 22:22:00,
2013-07-23 17:28:00,94.8,77.7,29.84,SSW,198,2.0,5.0,58,0.00,,,0.00,meteohub,2013-07-23 22:28:00,
2013-07-23 17:37:00,93.7,77.7,29.83,South,173,1.0,5.0,60,0.00,,,0.00,meteohub,2013-07-23 22:37:00,
2013-07-23 17:45:00,93.0,77.0,29.83,South,173,1.0,5.0,60,0.00,,,0.00,meteohub,2013-07-23 22:45:00,
2013-07-23 17:51:00,92.5,76.6,29.83,ESE,110,2.0,5.0,60,0.00,,,0.00,meteohub,2013-07-23 22:51:00,
2013-07-23 17:56:00,92.1,76.6,29.82,SSW,198,3.0,5.0,61,0.00,,,0.00,meteohub,2013-07-23 22:56:00,
2013-07-23 18:02:00,91.6,77.2,29.81,South,175,2.0,7.0,63,0.00,,,0.00,meteohub,2013-07-23 23:02:00,
2013-07-23 18:07:00,91.2,76.8,29.81,ESE,108,1.0,5.0,63,0.00,,,0.00,meteohub,2013-07-23 23:07:00,
2013-07-23 18:13:00,91.0,76.6,29.81,SSW,212,4.0,5.0,63,0.00,,,0.00,meteohub,2013-07-23 23:13:00,
2013-07-23 18:20:00,90.7,76.3,29.80,South,174,3.0,4.0,63,0.00,,,0.00,meteohub,2013-07-23 23:20:00,
2013-07-23 18:25:00,90.3,76.5,29.79,SSW,192,0.0,5.0,64,0.00,,,0.00,meteohub,2013-07-23 23:25:00,
2013-07-23 18:30:00,90.0,76.1,29.79,SE,146,0.0,5.0,64,0.00,,,0.00,meteohub,2013-07-23 23:30:00,
2013-07-23 18:37:00,89.8,76.5,29.80,South,182,1.0,5.0,65,0.00,,,0.00,meteohub,2013-07-23 23:37:00,
2013-07-23 18:43:00,89.8,75.9,29.80,SSE,168,1.0,5.0,64,0.00,,,0.00,meteohub,2013-07-23 23:43:00,
2013-07-23 18:50:00,89.4,76.1,29.81,SSW,198,1.0,5.0,65,0.00,,,0.00,meteohub,2013-07-23 23:50:00,
2013-07-23 18:57:00,89.2,75.4,29.81,SSE,166,1.0,2.0,64,0.00,,,0.00,meteohub,2013-07-23 23:57:00,
2013-07-23 19:02:00,89.1,75.2,29.81,SSE,168,1.0,2.0,64,0.00,,,0.00,meteohub,2013-07-24 00:02:00,
2013-07-23 19:09:00,88.9,75.2,29.81,South,169,1.0,5.0,64,0.00,,,0.00,meteohub,2013-07-24 00:09:00,
2013-07-23 19:15:00,88.5,74.8,29.80,South,173,1.0,5.0,64,0.00,,,0.00,meteohub,2013-07-24 00:15:00,
2013-07-23 19:20:00,88.3,74.1,29.80,SSE,165,0.0,3.0,63,0.00,,,0.00,meteohub,2013-07-24 00:20:00,
2013-07-23 19:26:00,88.3,74.1,29.81,SSE,153,0.0,3.0,63,0.00,,,0.00,meteohub,2013-07-24 00:26:00,
2013-07-23 19:31:00,88.2,74.5,29.81,SSE,163,1.0,3.0,64,0.00,,,0.00,meteohub,2013-07-24 00:31:00,
2013-07-23 19:38:00,88.0,74.3,29.81,SSE,164,0.0,3.0,64,0.00,,,0.00,meteohub,2013-07-24 00:38:00,
2013-07-23 19:45:00,88.0,74.3,29.81,SW,231,0.0,3.0,64,0.00,,,0.00,meteohub,2013-07-24 00:45:00,
2013-07-23 19:52:00,87.4,73.8,29.82,ESE,117,1.0,3.0,64,0.00,,,0.00,meteohub,2013-07-24 00:52:00,
2013-07-23 19:57:00,87.4,74.3,29.82,ESE,117,0.0,3.0,65,0.00,,,0.00,meteohub,2013-07-24 00:57:00,
2013-07-23 20:03:00,87.3,73.6,29.82,ESE,119,0.0,3.0,64,0.00,,,0.00,meteohub,2013-07-24 01:03:00,
2013-07-23 20:11:00,86.9,72.9,29.82,SSE,163,0.0,3.0,63,0.00,,,0.00,meteohub,2013-07-24 01:11:00,
2013-07-23 20:16:00,86.7,72.7,29.82,SSE,163,0.0,4.0,63,0.00,,,0.00,meteohub,2013-07-24 01:16:00,
2013-07-23 20:21:00,86.4,72.3,29.82,SSE,163,0.0,3.0,63,0.00,,,0.00,meteohub,2013-07-24 01:21:00,
2013-07-23 20:27:00,86.2,72.5,29.81,SSE,163,1.0,3.0,64,0.00,,,0.00,meteohub,2013-07-24 01:27:00,
2013-07-23 20:32:00,85.8,71.8,29.81,SSE,168,2.0,3.0,63,0.00,,,0.00,meteohub,2013-07-24 01:32:00,
2013-07-23 20:37:00,85.8,71.8,29.81,SSE,168,0.0,3.0,63,0.00,,,0.00,meteohub,2013-07-24 01:37:00,
2013-07-23 20:43:00,85.5,71.4,29.81,SSW,203,2.0,3.0,63,0.00,,,0.00,meteohub,2013-07-24 01:43:00,
2013-07-23 20:48:00,85.3,70.7,29.80,SSE,167,0.0,4.0,62,0.00,,,0.00,meteohub,2013-07-24 01:48:00,
2013-07-23 20:57:00,84.9,70.9,29.80,SSE,159,1.0,5.0,63,0.00,,,0.00,meteohub,2013-07-24 01:57:00,
2013-07-23 21:02:00,84.7,70.7,29.81,SSW,205,0.0,5.0,63,0.00,,,0.00,meteohub,2013-07-24 02:02:00,
2013-07-23 21:07:00,84.7,70.3,29.81,SSW,206,0.0,3.0,62,0.00,,,0.00,meteohub,2013-07-24 02:07:00,
2013-07-23 21:15:00,84.6,71.1,29.82,SSW,206,0.0,2.0,64,0.00,,,0.00,meteohub,2013-07-24 02:15:00,
2013-07-23 21:22:00,84.0,70.5,29.82,SSW,206,0.0,2.0,64,0.00,,,0.00,meteohub,2013-07-24 02:22:00,
2013-07-23 21:27:00,84.0,71.1,29.82,SSW,206,0.0,1.0,65,0.00,,,0.00,meteohub,2013-07-24 02:27:00,
2013-07-23 21:32:00,83.8,71.8,29.82,SSW,206,0.0,1.0,67,0.00,,,0.00,meteohub,2013-07-24 02:32:00,
2013-07-23 21:37:00,83.5,71.8,29.83,SSW,206,0.0,0.0,68,0.00,,,0.00,meteohub,2013-07-24 02:37:00,
2013-07-23 21:44:00,83.1,71.4,29.84,SSW,206,0.0,0.0,68,0.00,,,0.00,meteohub,2013-07-24 02:44:00,
2013-07-23 21:55:00,82.6,70.9,29.84,SSW,206,0.0,1.0,68,0.00,,,0.00,meteohub,2013-07-24 02:55:00,
2013-07-23 22:02:00,81.9,70.3,29.84,SSW,206,0.0,1.0,68,0.00,,,0.00,meteohub,2013-07-24 03:02:00,
2013-07-23 22:07:00,81.7,70.2,29.85,SSW,206,0.0,1.0,68,0.00,,,0.00,meteohub,2013-07-24 03:07:00,
2013-07-23 22:12:00,81.5,70.7,29.85,SSW,206,0.0,1.0,70,0.00,,,0.00,meteohub,2013-07-24 03:12:00,
2013-07-23 22:17:00,81.3,71.1,29.85,SSW,206,0.0,1.0,71,0.00,,,0.00,meteohub,2013-07-24 03:17:00,
2013-07-23 22:22:00,81.1,70.9,29.84,SSW,206,0.0,1.0,71,0.00,,,0.00,meteohub,2013-07-24 03:22:00,
2013-07-23 22:27:00,81.1,70.9,29.85,SSW,206,0.0,1.0,71,0.00,,,0.00,meteohub,2013-07-24 03:27:00,
2013-07-23 22:32:00,81.1,70.9,29.85,SSW,206,0.0,2.0,71,0.00,,,0.00,meteohub,2013-07-24 03:32:00,
2013-07-23 22:40:00,81.1,71.2,29.85,SSW,206,0.0,2.0,72,0.00,,,0.00,meteohub,2013-07-24 03:40:00,
2013-07-23 22:46:00,81.0,71.4,29.85,SSW,206,0.0,2.0,73,0.00,,,0.00,meteohub,2013-07-24 03:46:00,
2013-07-23 22:52:00,80.8,71.8,29.85,SSW,206,0.0,1.0,74,0.00,,,0.00,meteohub,2013-07-24 03:52:00,
2013-07-23 22:57:00,80.6,71.6,29.84,SSE,162,0.0,2.0,74,0.00,,,0.00,meteohub,2013-07-24 03:57:00,
2013-07-23 23:01:00,80.6,71.6,29.84,SSE,168,0.0,2.0,74,0.00,,,0.00,meteohub,2013-07-24 04:01:00,
2013-07-23 23:07:00,80.4,71.4,29.84,SSE,157,0.0,2.0,74,0.00,,,0.00,meteohub,2013-07-24 04:07:00,
2013-07-23 23:16:00,80.2,71.6,29.85,SSW,209,2.0,2.0,75,0.00,,,0.00,meteohub,2013-07-24 04:16:00,
2013-07-23 23:21:00,80.2,71.6,29.84,SSE,155,1.0,3.0,75,0.00,,,0.00,meteohub,2013-07-24 04:21:00,
2013-07-23 23:26:00,80.2,71.2,29.84,SSE,155,0.0,3.0,74,0.00,,,0.00,meteohub,2013-07-24 04:26:00,
2013-07-23 23:31:00,80.1,71.1,29.84,SSE,158,0.0,3.0,74,0.00,,,0.00,meteohub,2013-07-24 04:31:00,
2013-07-23 23:37:00,80.1,71.4,29.84,SSE,152,1.0,3.0,75,0.00,,,0.00,meteohub,2013-07-24 04:37:00,
2013-07-23 23:42:00,80.1,71.1,29.84,SSE,152,1.0,3.0,74,0.00,,,0.00,meteohub,2013-07-24 04:42:00,
2013-07-23 23:47:00,80.1,71.1,29.84,SSE,152,0.0,3.0,74,0.00,,,0.00,meteohub,2013-07-24 04:47:00,
2013-07-23 23:52:00,79.9,70.9,29.84,SW,221,0.0,2.0,74,0.00,,,0.00,meteohub,2013-07-24 04:52:00,
2013-07-23 23:57:00,79.9,70.9,29.84,SSW,205,0.0,2.0,74,0.00,,,0.00,meteohub,2013-07-24 04:57:00,